Погода в Агонде

Индия     15°03′26″N   73°59′00″E
темп.,
°C
ветер,
м/с
пор.,
м/с
влажн.,
%
обл.,
%
осадки,
мм/ч
давл.,
гПа
погр.,
м
17 мая, пн
пн1723:30+28ююз101479100 10.0 10041274
02:30+27ююз10138493 3.0 10031007
05:30+28ю101383100 6.4 10041115
08:30+28ю9128298 4.2 10061047
11:30+29ю8107898 5.4 10071007
14:30+29ю91079100 1.3 1005991
17:30+28ю81080100 2.1 1005929
20:30+28ююв81080100 0.2 1006893
18 мая, вт
вт1823:30+28ю71080100 0.7 1007865
02:30+27ю71084100 2.6 1005702
05:30+27ююв81085100 5.5 1005814
08:30+28ююв81184100 1.8 1007894
11:30+29ююв91181100 4.3 1007959
14:30+29ююв91282100 3.6 1005986
17:30+26зсз7890100 13.4 1005610
20:30+25с3389100 5.1 1008383
19 мая, ср
ср1923:30+25в2289100 5.4 1008169
02:30+26ююв3484100 0.1 1006413
05:30+26ю4586100 3.3 1006392
08:30+27ю578374 6.3 1009613
11:30+27ююз458393 13.4 1009530
14:30+28ю4476100 2.5 1007669
17:30+28ююз2375100 2.5 1006750
20:30+27ю2378100 0.1 1008453
20 мая, чт
чт2023:30+27ю2278100 0.1 1008408
02:30+27юв2282100 0.1 1007292
05:30+26в118487 0.2 1007200
08:30+27в1179100 0.1 1010251
11:30+29ю327498 0.1 1010673
14:30+29юз227429 0.6 1008642
17:30+29зюз337284 0.7 1007732
20:30+28зсз227516 0.0 1009404
21 мая, пт
пт2123:30+28сз117643 0.0 1009407
02:30+27ссз127771 0.0 1007434
05:30+27св1178100 0.0 1008265
08:30+27всв117993 0.0 1010267
11:30+29юз1174100 0.0 1010477
14:30+28зюз237786 0.1 1008376
17:30+29юз237410 0.3 1007637
20:30+28ю127819 0.8 1009276